Tracking 33744 objects as of 14-Apr-2026
HD Live streaming from Space Station
objects crossing your sky now

STARLINK-5759

Track STARLINK-5759 now!
10-day predictions
STARLINK-5759 is classified as:


NORAD ID: 55592
Int'l Code: 2023-020Z
Perigee: 489.1 km
Apogee: 491.3 km
Inclination: 43.0 °
Period: 94.3 minutes
Semi major axis: 6861 km
RCS: Unknown
Launch date: February 12, 2023
Source: United States (US)
Launch site: AIR FORCE EASTERN TEST RANGE (AFETR)
Your satellite tracking list
Your tracking list is empty




NASA's NSSDC Master Catalog

Two Line Element Set (TLE):
1 55592U 23020Z   26104.50346859 -.00000181  00000-0  29667-5 0  9992
2 55592  43.0024 162.6333 0001570 276.2817  83.7856 15.27576051174391
Source of the keplerian elements: AFSPC